Station RCKM4 - 9076024 - Rock Cut, MI Image indicating link to RSS feed of recent meteorological observations for station RCKM4


Conditions at RCKM4 as of
(11:00 am EDT)
1500 GMT on 04/20/2024:
     

Click on the graph icon in the table below to see a time series plot of the last five days of that observation.

5-day plot - Wind Direction Wind Direction (WDIR): W ( 280 deg true )
5-day plot - Wind Speed Wind Speed (WSPD): 9.9 kts
5-day plot - Wind Gust Wind Gust (GST): 19.0 kts
5-day plot - Atmospheric Pressure Atmospheric Pressure (PRES):29.92 in
5-day plot - Pressure Tendency Pressure Tendency (PTDY):+0.05 in ( Rising )
5-day plot - Water Temperature Water Temperature (WTMP): 41.2 °F
5-day plot - Wind Speed at 10 Meters Wind Speed at 10 meters (WSPD10M): 9.7 kts
5-day plot - Wind Speed at 20 Meters Wind Speed at 20 meters (WSPD20M): 11.7 kts
5-day plot -  Wind Speed, Wind Gust and Atmospheric Pressure Combined plot of Wind Speed, Gust, and Air Pressure
NOS Water Level Observation Network Water Level
Previous observations
TIME
(EDT)
5-day plot - Wind Direction
WDIR
 
5-day plot - Wind Speed
WSPD
kts
5-day plot - Wind Gust
GST
kts
5-day plot - Wave Height
WVHT
ft
5-day plot - Dominant Wave Period
DPD
sec
5-day plot - Average Wave Period
APD
sec
5-day plot - Mean Wave Direction
MWD
 
5-day plot - Atmospheric Pressure
PRES
in
5-day plot - Pressure Tendency
PTDY
in
5-day plot - Air Temperature
ATMP
°F
5-day plot - Water Temperature
WTMP
°F
5-day plot - Dew Point
DEWP
°F
5-day plot - Salinity
SAL
psu
5-day plot - Visibility
VIS
nmi
5-day plot - Tide (above MLLW)
TIDE
ft
2024-04-20 10:54 amWNW 13.0 17.1----29.92-- 41.2----
2024-04-20 10:48 amWNW 13.0 19.0----29.92-- 41.2----
2024-04-20 10:42 amWNW 15.9 21.0----29.91-- 41.2----
2024-04-20 10:36 amWNW 15.0 20.0----29.91-- 41.0----
2024-04-20 10:30 amWNW 11.1 17.1----29.91-- 41.0----
2024-04-20 10:24 amWNW 9.9 15.0----29.91-- 41.0----
2024-04-20 10:18 amWNW 12.0 15.9----29.91-- 41.0----
2024-04-20 10:12 amWNW 11.1 18.1----29.90-- 41.0----
2024-04-20 10:06 am W 15.9 22.0----29.90-- 41.0----
2024-04-20 10:00 amWNW 17.1 22.9----29.90+0.04- 41.2----
2024-04-20 09:54 amWNW 9.9 15.0----29.90-- 41.2----
2024-04-20 09:48 am W 8.9 15.0----29.90-- 41.5----
2024-04-20 09:42 amWNW 8.9 13.0----29.89-- 41.7----
2024-04-20 09:36 am W 9.9 14.0----29.89-- 41.9----
2024-04-20 09:30 am W 11.1 15.9----29.89-- 41.7----
2024-04-20 09:24 am W 9.9 15.0----29.88-- 41.7----
2024-04-20 09:18 am W 8.0 13.0----29.88-- 41.9----
2024-04-20 09:12 am W 8.9 14.0----29.88-- 41.9----
2024-04-20 09:06 am W 8.0 12.0----29.88-- 41.9----
2024-04-20 09:00 am W 7.0 13.0----29.88+0.03- 41.9----
2024-04-20 08:54 am W 5.1 11.1----29.88-- 41.9----
2024-04-20 08:48 am W 7.0 9.9----29.88-- 41.7----
2024-04-20 08:42 am W 5.1 14.0----29.88-- 41.7----
2024-04-20 08:36 am W 8.0 13.0----29.88-- 41.7----
2024-04-20 08:30 amWSW 5.1 13.0----29.88-- 41.9----
2024-04-20 08:24 am W 6.0 14.0----29.88-- 41.9----
2024-04-20 08:18 amWSW 8.0 12.0----29.88-- 41.9----
2024-04-20 08:12 amWSW 5.1 12.0----29.88-- 41.9----
2024-04-20 08:06 am W 6.0 11.1----29.88-- 41.9----
2024-04-20 08:00 am W 8.0 12.0----29.87+0.02- 41.7----
2024-04-20 07:54 am W 6.0 9.9----29.87-- 41.7----
2024-04-20 07:48 am W 6.0 8.9----29.87-- 41.7----
2024-04-20 07:42 am W 7.0 11.1----29.87-- 41.7----
2024-04-20 07:36 am W 5.1 9.9----29.87-- 41.7----
2024-04-20 07:30 amWSW 7.0 11.1----29.87-- 41.7----
2024-04-20 07:24 amWSW 5.1 11.1----29.87-- 41.7----
2024-04-20 07:18 am W 6.0 8.9----29.86-- 41.9----
2024-04-20 07:12 amWSW 4.1 8.0----29.86-- 41.9----
2024-04-20 07:06 am W 2.9 7.0----29.86-- 41.9----
2024-04-20 07:00 amWSW 5.1 8.9----29.86+0.01- 41.9----
2024-04-20 06:54 am W 5.1 8.9----29.86-- 41.9----
2024-04-20 06:48 amWSW 5.1 7.0----29.86-- 41.9----
2024-04-20 06:42 am W 5.1 8.0----29.86-- 41.9----
2024-04-20 06:36 am W 4.1 6.0----29.86-- 41.9----
2024-04-20 06:30 amWSW 4.1 8.0----29.85-- 42.1----
2024-04-20 06:24 am W 4.1 7.0----29.85-- 42.1----
2024-04-20 06:18 am W 6.0 8.0----29.85-- 42.1----
2024-04-20 06:12 am W 6.0 8.9----29.85-- 42.1----
2024-04-20 06:06 am W 6.0 8.9----29.85-- 42.1----
2024-04-20 06:00 amWSW 5.1 8.0----29.85+0.01- 42.1----
2024-04-20 05:54 am W 5.1 9.9----29.86-- 42.1----
2024-04-20 05:48 am W 6.0 11.1----29.86-- 42.1----
2024-04-20 05:42 am W 7.0 11.1----29.86-- 42.1----
2024-04-20 05:36 am W 6.0 9.9----29.86-- 42.1----
2024-04-20 05:30 am W 6.0 13.0----29.86-- 42.1----
2024-04-20 05:24 am W 7.0 11.1----29.85-- 41.9----
2024-04-20 05:18 am W 6.0 14.0----29.86-- 41.9----
2024-04-20 05:12 am W 6.0 13.0----29.86-- 41.9----
2024-04-20 05:06 am W 9.9 14.0----29.85-- 41.9----
2024-04-20 05:00 am W 5.1 13.0----29.85+0.00- 41.7----
2024-04-20 04:54 am W 8.0 9.9----29.85-- 41.7----
2024-04-20 04:48 am W 6.0 9.9----29.85-- 41.5----
2024-04-20 04:42 am W 7.0 12.0----29.85-- 41.5----
2024-04-20 04:36 am W 8.0 12.0----29.85-- 41.5----
2024-04-20 04:30 am W 5.1 9.9----29.85-- 41.7----
2024-04-20 04:24 am W 7.0 8.9----29.85-- 41.5----
2024-04-20 04:18 am W 5.1 8.0----29.85-- 41.5----
2024-04-20 04:12 am W 4.1 8.0----29.85-- 41.4----
2024-04-20 04:06 am W 5.1 7.0----29.85-- 41.5----
2024-04-20 04:00 am-------29.85+0.00- 41.4----
2024-04-20 03:54 am-------29.85-- 41.4----
2024-04-20 03:48 am W 4.1 7.0----29.85-- 41.4----
2024-04-20 03:42 am W 5.1 8.9----29.85-- 41.2----
2024-04-20 03:36 am W 2.9 6.0----29.85-- 41.4----
2024-04-20 03:30 am W 2.9 6.0----29.84-- 41.4----
2024-04-20 03:24 am W 4.1 6.0----29.85-- 41.4----
2024-04-20 03:18 am W 5.1 7.0----29.84-- 41.4----
2024-04-20 03:12 am W 4.1 8.0----29.84-- 41.4----
2024-04-20 03:06 am W 5.1 7.0----29.84-- 41.5----
2024-04-20 03:00 am W 4.1 7.0----29.85+0.00- 41.5----
2024-04-20 02:54 am W 4.1 6.0----29.85-- 41.7----
2024-04-20 02:48 am W 5.1 7.0----29.85-- 41.9----
2024-04-20 02:42 am W 4.1 6.0----29.85-- 42.1----
2024-04-20 02:36 am W 5.1 8.9----29.85-- 42.1----
2024-04-20 02:30 am W 6.0 9.9----29.85-- 41.9----
2024-04-20 02:24 am W 5.1 8.9----29.85-- 42.1----
2024-04-20 02:18 am W 4.1 7.0----29.85-- 41.9----
2024-04-20 02:12 am W 4.1 8.9----29.85-- 41.9----
2024-04-20 02:06 am W 6.0 8.0----29.85-- 42.1----
2024-04-20 02:00 am W 5.1 9.9----29.85+0.00- 42.1----
2024-04-20 01:54 am W 6.0 8.9----29.85-- 42.1----
2024-04-20 01:48 am W 5.1 7.0----29.85-- 42.1----
2024-04-20 01:42 am W 4.1 8.9----29.85-- 42.1----
2024-04-20 01:36 am W 5.1 7.0----29.85-- 42.1----
2024-04-20 01:30 am W 5.1 8.0----29.85-- 42.3----
2024-04-20 01:24 am W 8.0 9.9----29.85-- 42.3----
2024-04-20 01:18 am W 6.0 8.9----29.85-- 42.3----
2024-04-20 01:12 am W 6.0 8.0----29.85-- 42.3----
2024-04-20 01:06 am W 7.0 8.9----29.85-- 42.3----
2024-04-20 01:00 am W 5.1 8.9----29.85-0.01- 42.3----
2024-04-20 12:54 am W 6.0 8.0----29.85-- 42.3----
2024-04-20 12:48 am W 4.1 7.0----29.85-- 42.3----
2024-04-20 12:42 am W 4.1 7.0----29.85-- 42.3----
2024-04-20 12:36 am W 5.1 8.0----29.85-- 42.3----
2024-04-20 12:30 am W 6.0 8.9----29.85-- 42.3----
2024-04-20 12:24 am W 4.1 6.0----29.85-- 42.3----
2024-04-20 12:18 am W 5.1 8.0----29.85-- 42.1----
2024-04-20 12:12 am W 5.1 8.9----29.85-- 42.1----
2024-04-20 12:06 am W 5.1 8.0----29.85-- 42.1----
2024-04-20 12:00 am W 5.1 7.0----29.85+0.00- 42.3----
2024-04-19 11:54 pm W 5.1 7.0----29.85-- 42.3----
2024-04-19 11:48 pm W 5.1 8.0----29.85-- 42.3----
2024-04-19 11:42 pm W 5.1 8.0----29.85-- 42.3----
2024-04-19 11:36 pm W 5.1 8.0----29.86-- 42.3----
2024-04-19 11:30 pm W 4.1 8.0----29.85-- 42.3----
2024-04-19 11:24 pm W 5.1 7.0----29.85-- 42.3----
2024-04-19 11:18 pm W 5.1 8.0----29.85-- 42.3----
2024-04-19 11:12 pm W 4.1 5.1----29.85-- 42.3----
2024-04-19 11:06 pm W 2.9 4.1----29.86-- 42.3----
2024-04-19 11:00 pm W 1.9 4.1----29.86+0.02- 42.1----
2024-04-19 10:54 pm W 2.9 5.1----29.86-- 42.1----
2024-04-19 10:48 pm W 4.1 5.1----29.86-- 42.1----
2024-04-19 10:42 pm W 2.9 4.1----29.86-- 42.1----
2024-04-19 10:36 pmWSW 2.9 4.1----29.86-- 42.1----
2024-04-19 10:30 pmWSW 2.9 4.1----29.86-- 42.1----
2024-04-19 10:24 pmWSW 2.9 4.1----29.86-- 42.1----
2024-04-19 10:18 pmWSW 2.9 4.1----29.86-- 42.1----
2024-04-19 10:12 pm W 2.9 5.1----29.86-- 41.9----
2024-04-19 10:06 pm W 2.9 5.1----29.86-- 41.9----
2024-04-19 10:00 pm W 4.1 6.0----29.86+0.02- 41.9----
2024-04-19 09:54 pm W 2.9 5.1----29.86-- 41.9----
2024-04-19 09:48 pm W 4.1 7.0----29.86-- 41.9----
2024-04-19 09:42 pmWNW 6.0 9.9----29.87-- 41.9----
2024-04-19 09:36 pmWNW 5.1 8.9----29.87-- 41.9----
2024-04-19 09:30 pmWNW 4.1 5.1----29.87-- 41.9----
2024-04-19 09:24 pm W 4.1 6.0----29.87-- 41.9----
2024-04-19 09:18 pmWNW 5.1 8.0----29.86-- 41.9----
2024-04-19 09:12 pmWNW 5.1 7.0----29.86-- 41.9----
2024-04-19 09:06 pmWNW 5.1 7.0----29.86-- 41.9----
2024-04-19 09:00 pmWNW 4.1 7.0----29.86+0.02- 41.9----
2024-04-19 08:54 pmWNW 5.1 12.0----29.86-- 41.9----
2024-04-19 08:48 pmWSW 5.1 12.0----29.86-- 41.9----
2024-04-19 08:42 pmSSW 1.9 2.9----29.85-- 41.9----
2024-04-19 08:36 pmWSW 1.9 1.9----29.85-- 41.9----
2024-04-19 08:30 pm SW 1.0 1.0----29.85-- 41.9----
2024-04-19 08:24 pmSSW 1.0 2.9----29.85-- 41.9----
2024-04-19 08:18 pmSSW 1.9 1.9----29.85-- 41.9----
2024-04-19 08:12 pm NW 1.9 2.9----29.85-- 41.9----
2024-04-19 08:06 pmNNW 2.9 4.1----29.84-- 41.9----
2024-04-19 08:00 pm NW 4.1 4.1----29.84+0.01- 41.9----
2024-04-19 07:54 pmNNW 2.9 4.1----29.84-- 41.9----
2024-04-19 07:48 pm N 2.9 4.1----29.84-- 41.9----
2024-04-19 07:42 pmNNW 2.9 5.1----29.84-- 41.9----
2024-04-19 07:36 pmNNW 4.1 5.1----29.84-- 41.9----
2024-04-19 07:30 pm NW 5.1 7.0----29.84-- 41.9----
2024-04-19 07:24 pmNNW 5.1 6.0----29.84-- 41.9----
2024-04-19 07:18 pm NW 5.1 6.0----29.84-- 41.9----
2024-04-19 07:12 pm NW 4.1 5.1----29.84-- 41.9----
2024-04-19 07:06 pm NW 6.0 8.0----29.84-- 41.9----
2024-04-19 07:00 pm NW 7.0 9.9----29.84+0.02- 41.9----
2024-04-19 06:54 pm NW 7.0 8.9----29.84-- 41.9----
2024-04-19 06:48 pm NW 8.0 11.1----29.84-- 41.9----
2024-04-19 06:42 pm NW 8.0 8.9----29.84-- 41.9----
2024-04-19 06:36 pm NW 6.0 7.0----29.84-- 41.9----
2024-04-19 06:30 pm NW 5.1 7.0----29.84-- 41.9----
2024-04-19 06:24 pm NW 5.1 7.0----29.84-- 41.9----
2024-04-19 06:18 pm NW 6.0 8.0----29.84-- 41.9----
2024-04-19 06:12 pm NW 6.0 8.9----29.84-- 41.9----
2024-04-19 06:06 pmNNW 8.0 9.9----29.84-- 41.9----
2024-04-19 06:00 pm NW 8.9 11.1----29.84+0.02- 41.9----
2024-04-19 05:54 pm NW 8.9 11.1----29.84-- 41.9----
2024-04-19 05:48 pmNNW 9.9 12.0----29.83-- 41.9----
2024-04-19 05:42 pmNNW 8.0 9.9----29.83-- 41.9----
2024-04-19 05:36 pm NW 8.9 11.1----29.83-- 41.9----
2024-04-19 05:30 pm NW 8.0 9.9----29.83-- 42.1----
2024-04-19 05:24 pm NW 8.0 8.9----29.83-- 42.1----
2024-04-19 05:18 pmWNW 6.0 9.9----29.83-- 42.1----
2024-04-19 05:12 pmWNW 8.0 12.0----29.83-- 42.1----
2024-04-19 05:06 pmWNW 11.1 13.0----29.83-- 41.9----
2024-04-19 05:00 pmWNW 8.9 13.0----29.83+0.04- 42.1----
2024-04-19 04:54 pm NW 9.9 13.0----29.83-- 42.1----
2024-04-19 04:48 pm NW 9.9 13.0----29.83-- 42.1----
2024-04-19 04:42 pm NW 11.1 14.0----29.83-- 42.1----
2024-04-19 04:36 pm NW 12.0 14.0----29.82-- 42.1----
2024-04-19 04:30 pm NW 11.1 13.0----29.82-- 42.1----
2024-04-19 04:24 pmWNW 5.1 6.0----29.81-- 42.1----
2024-04-19 04:18 pmWNW 5.1 6.0----29.81-- 41.9----
2024-04-19 04:12 pmWNW 6.0 8.9----29.81-- 41.9----
2024-04-19 04:06 pmWNW 5.1 11.1----29.82-- 41.9----
2024-04-19 04:00 pm W 8.0 15.9----29.82+0.03- 41.9----
2024-04-19 03:54 pm W 6.0 11.1----29.82-- 42.1----
2024-04-19 03:48 pm W 9.9 13.0----29.82-- 42.1----
2024-04-19 03:42 pmWSW 5.1 8.9----29.82-- 42.1----
2024-04-19 03:36 pm W 7.0 11.1----29.81-- 42.1----
2024-04-19 03:30 pm W 5.1 8.0----29.82-- 42.3----
2024-04-19 03:24 pm W 5.1 9.9----29.82-- 42.4----
2024-04-19 03:18 pm W 8.0 11.1----29.81-- 42.3----
2024-04-19 03:12 pmWNW 6.0 8.9----29.81-- 42.3----
2024-04-19 03:06 pmWNW 6.0 8.9----29.81-- 42.3----
2024-04-19 03:00 pmWNW 6.0 8.0----29.81+0.01- 42.1----
2024-04-19 02:54 pm NW 6.0 9.9----29.81-- 42.1----
2024-04-19 02:48 pmNNW 8.9 11.1----29.81-- 42.1----
2024-04-19 02:42 pmNNW 9.9 15.0----29.81-- 42.1----
2024-04-19 02:36 pm NW 12.0 17.1----29.80-- 42.1----
2024-04-19 02:30 pmNNW 15.0 18.1----29.80-- 42.1----
2024-04-19 02:24 pm NW 9.9 17.1----29.80-- 42.1----
2024-04-19 02:18 pm NW 9.9 14.0----29.79-- 42.1----
2024-04-19 02:12 pmWNW 8.0 12.0----29.79-- 42.1----
2024-04-19 02:06 pmWNW 7.0 9.9----29.79-- 42.1----
2024-04-19 02:00 pm W 5.1 11.1----29.79-0.02- 42.1----
2024-04-19 01:54 pm W 4.1 8.9----29.79-- 42.1----
2024-04-19 01:48 pm W 6.0 12.0----29.79-- 42.1----
2024-04-19 01:42 pm W 6.0 11.1----29.79-- 42.1----
2024-04-19 01:36 pm W 8.9 15.9----29.79-- 42.1----
2024-04-19 01:30 pm W 7.0 12.0----29.79-- 42.1----
2024-04-19 01:24 pm W 7.0 13.0----29.79-- 42.1----
2024-04-19 01:18 pm W 6.0 9.9----29.79-- 42.1----
2024-04-19 01:12 pmWNW 6.0 12.0----29.80-- 42.1----
2024-04-19 01:06 pmWNW 8.0 12.0----29.80-- 42.1----
2024-04-19 01:00 pm NW 9.9 13.0----29.80+0.00- 42.1----
2024-04-19 12:54 pmWNW 11.1 14.0----29.79-- 42.1----
2024-04-19 12:48 pmWNW 13.0 17.1----29.79-- 42.1----
2024-04-19 12:42 pm NW 13.0 15.9----29.79-- 42.1----
2024-04-19 12:36 pm NW 11.1 15.9----29.79-- 42.1----
2024-04-19 12:30 pm NW 12.0 15.9----29.79-- 42.1----
2024-04-19 12:24 pm NW 11.1 15.0----29.79-- 42.1----
2024-04-19 12:18 pm NW 13.0 15.0----29.80-- 42.1----
2024-04-19 12:12 pm NW 9.9 12.0----29.80-- 42.1----
2024-04-19 12:06 pmWNW 9.9 15.0----29.80-- 42.1----
2024-04-19 12:00 pm NW 13.0 15.9----29.80+0.00- 42.1----
2024-04-19 11:54 am NW 12.0 15.9----29.80-- 42.1----
2024-04-19 11:48 am NW 11.1 15.0----29.80-- 42.1----
2024-04-19 11:42 am NW 12.0 15.0----29.80-- 42.1----
2024-04-19 11:36 amWNW 11.1 14.0----29.80-- 42.1----
2024-04-19 11:30 amWNW 8.0 12.0----29.80-- 42.1----
2024-04-19 11:24 amWNW 8.0 12.0----29.80-- 42.1----
2024-04-19 11:18 am W 8.0 12.0----29.80-- 42.1----
2024-04-19 11:12 am W 9.9 15.9----29.80-- 42.1----
2024-04-19 11:06 amWNW 8.0 12.0----29.80-- 42.3----
2024-04-19 11:00 amWNW 8.0 12.0----29.80+0.00- 42.4----
2024-04-19 10:54 am W 8.9 14.0----29.80-- 42.6----